Temp
11 11 11 11 11 11 12 12 13 13 13 13 14 14 14 15 15 15 16 16 16 16 16 16 16 16 14 14 19 24 25 24 24 22 21 21 22 24 24 25 27 28 25 27 29 26 27
11 10 10 11 11 11 12 12 12 12 13 13 14 14 14 15 15 16 16 16 16 16 16 16 16 15 14 12 23 24 23 24 24 22 22 21 23 25 26 26 27 29 27 26 27 28 26
10 10 11 11 11 11 11 11 12 12 13 13 14 14 14 15 15 16 16 16 15 16 15 15 15 15 12 19 24 23 23 24 24 24 22 22 23 25 26 26 28 29 29 28 27 28 29
10 10 11 10 10 11 11 12 12 12 13 13 14 14 14 15 15 15 16 15 16 16 15 15 15 13 12 24 23 23 22 23 23 23 23 23 24 24 26 28 28 28 28 27 27 27 29
11 11 11 11 11 11 12 12 12 12 12 12 13 13 14 14 15 15 15 16 16 16 15 14 14 12 13 21 22 25 23 23 23 22 22 23 24 24 26 26 25 26 25 27 29 31 32
11 11 11 11 11 11 11 11 11 11 11 12 13 13 14 14 14 14 15 15 15 15 15 14 12 11 19 23 23 24 24 25 24 24 24 24 25 24 25 24 23 24 25 26 28 31 30
11 11 11 11 11 11 11 11 12 12 12 12 12 13 14 14 14 14 15 15 14 15 14 14 15 16 16 21 23 24 24 24 25 25 23 24 22 23 24 25 26 27 27 27 29 31 30
10 11 11 11 10 10 10 11 11 11 12 11 12 12 13 15 14 14 14 14 14 14 14 15 15 16 18 20 17 22 24 24 24 23 24 23 22 25 27 27 26 27 27 27 29 31 30
10 10 10 10 10 10 11 11 11 11 11 11 11 11 12 14 14 14 14 14 14 14 14 15 17 16 17 17 18 19 23 24 24 24 24 23 25 27 27 26 26 26 26 27 28 30 31
10 10 10 10 10 10 11 11 11 11 11 11 11 12 13 12 13 13 13 13 14 14 11 17 20 21 20 18 20 22 22 25 25 24 25 24 26 26 26 26 27 25 28 28 29 28 27
10 10 10 10 11 10 10 10 10 11 11 11 11 11 12 10 11 12 13 13 14 15 13 22 19 20 18 20 24 24 25 23 24 25 25 25 26 26 25 26 28 27 28 28 29 27 26
9 10 10 10 10 10 10 10 10 11 11 11 11 11 11 12 11 13 13 13 14 13 14 19 16 17 17 19 21 23 24 23 26 25 26 26 28 27 27 28 28 29 28 27 27 27 25
9 9 9 9 9 9 9 9 10 10 10 11 12 11 12 11 12 13 13 14 12 13 17 16 15 16 16 17 18 19 23 23 23 22 23 25 26 28 28 27 28 27 25 23 23 24 24
9 9 8 8 9 9 9 9 10 10 10 11 12 12 12 12 13 13 13 13 12 16 14 15 15 15 15 15 14 14 17 22 24 24 23 23 23 26 28 27 26 27 26 21 21 23 25
8 8 8 8 9 8 8 9 9 9 10 10 12 13 13 13 13 13 14 12 13 14 15 14 15 14 14 14 12 12 13 17 24 24 22 23 24 28 28 29 28 26 25 26 24 26 23
8 8 8 8 8 8 8 8 8 9 9 10 11 11 13 13 14 14 13 12 14 15 15 14 12 13 12 12 10 11 11 16 12 15 21 24 22 27 28 29 29 27 27 25 25 23 23
8 8 8 8 8 8 7 8 7 7 9 10 10 9 14 14 14 14 12 13 14 15 13 13 13 12 13 9 10 10 11 11 12 12 15 17 22 24 27 27 27 27 26 27 25 23 21
8 8 8 7 7 7 7 7 7 7 7 9 7 9 13 13 13 14 13 14 14 14 12 12 12 14 12 12 10 10 9 9 9 11 12 16 16 22 24 28 29 28 27 27 25 23 24
8 7 7 7 7 6 6 7 6 6 6 6 5 9 12 11 11 11 12 13 13 10 11 12 11 11 13 9 8 8 9 11 9 10 11 12 15 20 23 24 27 28 28 28 25 23 24
8 7 7 7 7 6 6 6 6 6 6 6 6 9 9 9 10 10 11 11 11 11 11 11 11 12 11 10 10 7 8 11 9 10 11 12 15 16 20 24 25 27 28 28 26 26 26
7 7 7 7 7 6 6 6 5 6 5 5 7 8 6 6 7 8 10 11 11 10 11 12 11 10 9 8 10 8 10 10 11 10 10 10 13 17 21 24 26 28 28 29 27 26 26
7 7 7 7 6 6 6 5 5 4 5 5 5 4 2 3 5 8 9 9 10 11 11 10 10 10 10 9 8 8 10 10 9 9 10 11 12 16 20 24 26 26 29 29 29 28 27
7 7 7 6 6 6 5 5 5 4 2 3 4 3 2 3 5 7 8 9 9 10 10 11 11 10 10 11 10 11 12 12 11 11 9 10 14 14 18 23 25 24 26 29 29 29 28
7 7 6 6 6 6 5 5 4 3 3 2 3 3 1 3 4 6 7 8 8 9 8 10 11 8 9 10 10 11 12 12 13 13 11 10 13 14 16 20 20 23 26 28 29 29 30
7 7 6 6 6 6 5 5 4 4 3 3 3 3 2 2 3 4 7 7 7 8 8 9 10 9 9 9 9 10 10 11 12 14 12 13 13 13 15 19 22 25 24 23 28 20 21
7 7 7 7 6 6 5 5 5 4 3 3 4 3 2 1 3 3 3 5 5 6 7 8 8 9 9 9 8 8 8 10 12 14 13 14 15 14 15 17 20 17 20 22 25 17 20
7 7 7 7 7 7 6 6 6 4 3 3 4 3 3 1 2 3 4 4 4 5 5 7 7 8 7 5 7 9 9 13 12 11 12 14 14 14 15 16 15 18 20 20 20 16 19
8 8 8 8 8 7 7 7 6 4 3 3 4 4 3 3 3 3 3 3 3 4 5 6 6 7 7 6 6 5 6 10 10 11 8 13 13 14 16 16 13 16 19 16 17 18 18
8 8 9 9 8 8 8 8 7 4 4 4 4 4 4 3 3 4 3 4 4 4 3 5 5 6 7 6 6 7 8 9 10 8 10 10 10 9 13 13 15 13 15 18 18 18 18
Height
1559 1557 1554 1550 1547 1544 1540 1537 1533 1529 1525 1521 1516 1512 1507 1501 1496 1492 1487 1482 1478 1475 1471 1469 1466 1465 1465 1464 1448 1451 1452 1455 1457 1462 1465 1470 1474 1476 1478 1477 1476 1475 1476 1472 1459 1476 1473
1561 1558 1554 1551 1548 1545 1541 1537 1533 1529 1525 1520 1515 1511 1505 1499 1494 1489 1484 1479 1475 1471 1468 1465 1462 1462 1461 1459 1441 1445 1448 1451 1453 1456 1460 1466 1467 1471 1472 1472 1471 1465 1469 1467 1467 1460 1476
1562 1559 1556 1553 1549 1546 1542 1538 1534 1529 1524 1519 1514 1509 1503 1498 1492 1486 1481 1476 1471 1467 1464 1461 1458 1457 1454 1438 1440 1444 1445 1447 1450 1452 1455 1459 1464 1468 1469 1467 1465 1462 1466 1468 1470 1465 1457
1563 1560 1557 1554 1551 1547 1543 1539 1534 1529 1524 1519 1513 1508 1502 1496 1490 1484 1479 1473 1468 1463 1459 1457 1454 1452 1440 1433 1434 1436 1441 1445 1447 1450 1454 1459 1462 1465 1464 1464 1462 1461 1461 1472 1463 1458 1453
1565 1562 1559 1555 1552 1548 1544 1539 1534 1529 1524 1519 1513 1507 1501 1495 1489 1483 1478 1472 1466 1459 1455 1453 1453 1452 1434 1430 1427 1429 1435 1440 1444 1449 1453 1458 1461 1461 1462 1463 1469 1459 1473 1465 1456 1444 1446
1566 1563 1560 1556 1552 1548 1543 1538 1534 1529 1523 1518 1511 1505 1500 1494 1488 1484 1477 1472 1465 1459 1457 1454 1454 1455 1430 1426 1427 1429 1432 1436 1440 1446 1452 1454 1456 1457 1455 1459 1474 1469 1467 1460 1457 1442 1441
1567 1564 1561 1557 1553 1548 1544 1539 1534 1529 1523 1517 1512 1505 1499 1494 1488 1483 1477 1472 1469 1463 1461 1464 1454 1443 1423 1423 1423 1424 1429 1433 1437 1441 1443 1444 1451 1448 1444 1447 1450 1452 1456 1455 1444 1436 1441
1568 1565 1562 1558 1553 1549 1545 1540 1535 1529 1522 1516 1510 1504 1497 1492 1487 1483 1480 1478 1479 1476 1442 1439 1427 1424 1423 1424 1430 1416 1424 1429 1428 1429 1435 1443 1440 1434 1438 1443 1447 1448 1452 1450 1438 1430 1438
1569 1566 1562 1558 1554 1550 1544 1539 1533 1527 1521 1514 1509 1503 1496 1490 1486 1484 1481 1480 1477 1473 1462 1418 1416 1418 1414 1421 1418 1412 1419 1419 1419 1424 1424 1428 1420 1430 1432 1437 1444 1443 1447 1445 1446 1429 1428
1570 1566 1563 1559 1554 1548 1543 1538 1533 1528 1521 1515 1509 1502 1496 1487 1487 1483 1481 1477 1474 1470 1469 1429 1414 1411 1412 1412 1408 1406 1407 1415 1416 1416 1418 1419 1420 1421 1428 1430 1432 1445 1431 1434 1434 1440 1459
1571 1567 1563 1558 1553 1547 1543 1538 1533 1527 1521 1514 1508 1502 1495 1492 1486 1483 1480 1476 1471 1469 1475 1420 1425 1425 1419 1411 1402 1396 1400 1407 1404 1408 1415 1405 1409 1415 1422 1418 1421 1431 1428 1431 1430 1438 1447
1571 1567 1563 1558 1553 1548 1544 1538 1532 1526 1520 1512 1505 1500 1494 1492 1488 1484 1481 1475 1471 1476 1467 1436 1442 1436 1428 1420 1407 1400 1396 1400 1402 1407 1400 1403 1402 1405 1408 1411 1414 1419 1426 1430 1430 1438 1459
1571 1568 1563 1558 1553 1548 1544 1538 1532 1525 1518 1510 1501 1495 1490 1489 1487 1484 1479 1477 1478 1477 1453 1448 1450 1447 1440 1429 1412 1408 1396 1397 1400 1414 1406 1399 1396 1393 1395 1409 1407 1415 1432 1463 1468 1458 1458
1571 1567 1562 1558 1553 1549 1544 1537 1531 1524 1516 1507 1497 1490 1489 1485 1484 1481 1482 1480 1485 1462 1466 1458 1455 1449 1447 1440 1430 1423 1407 1390 1385 1390 1404 1407 1410 1386 1385 1393 1407 1409 1416 1450 1474 1465 1454
1571 1567 1562 1557 1553 1548 1543 1537 1532 1524 1515 1505 1493 1486 1484 1483 1481 1482 1482 1481 1473 1470 1465 1462 1457 1452 1450 1451 1455 1443 1428 1409 1381 1382 1397 1400 1392 1377 1379 1382 1390 1406 1415 1410 1433 1428 1451
1569 1565 1561 1557 1552 1547 1542 1536 1530 1524 1515 1505 1492 1486 1483 1483 1482 1482 1481 1477 1470 1466 1466 1465 1467 1460 1457 1457 1462 1458 1444 1413 1417 1408 1396 1384 1407 1373 1374 1381 1378 1385 1394 1425 1420 1458 1462
1568 1564 1560 1556 1552 1547 1542 1536 1530 1523 1515 1506 1494 1491 1485 1483 1479 1478 1479 1473 1468 1467 1467 1468 1463 1461 1453 1465 1466 1464 1452 1437 1431 1422 1414 1403 1387 1378 1373 1373 1378 1384 1396 1398 1413 1427 1454
1566 1563 1558 1554 1550 1545 1541 1535 1529 1523 1514 1508 1500 1497 1485 1481 1481 1473 1473 1470 1469 1467 1469 1466 1465 1455 1459 1455 1459 1461 1458 1459 1450 1444 1430 1413 1398 1384 1373 1355 1359 1369 1380 1388 1411 1429 1419
1563 1560 1556 1552 1547 1542 1539 1534 1528 1524 1518 1510 1504 1495 1487 1482 1483 1480 1476 1473 1470 1472 1473 1468 1466 1461 1455 1461 1463 1462 1458 1451 1453 1448 1442 1427 1403 1389 1377 1373 1362 1364 1366 1375 1391 1404 1418
1560 1557 1554 1550 1544 1540 1536 1532 1527 1523 1519 1514 1509 1500 1492 1486 1486 1484 1479 1475 1474 1472 1470 1468 1465 1459 1459 1458 1460 1460 1455 1447 1447 1444 1439 1433 1402 1399 1384 1369 1362 1364 1362 1367 1385 1402 1404
1557 1553 1549 1546 1541 1537 1533 1529 1525 1521 1518 1516 1512 1506 1505 1498 1491 1490 1484 1477 1473 1470 1468 1463 1461 1461 1464 1462 1453 1455 1450 1445 1438 1439 1435 1433 1403 1384 1365 1354 1353 1351 1357 1362 1374 1384 1396
1553 1549 1546 1542 1538 1533 1530 1526 1522 1519 1516 1514 1513 1512 1508 1502 1495 1488 1481 1477 1471 1466 1465 1463 1461 1459 1456 1457 1459 1455 1444 1444 1446 1438 1436 1420 1408 1384 1366 1352 1353 1358 1346 1350 1362 1369 1379
1550 1546 1542 1538 1533 1530 1527 1524 1520 1517 1515 1514 1511 1510 1509 1502 1495 1489 1481 1478 1473 1468 1466 1463 1458 1456 1454 1451 1450 1445 1439 1438 1436 1436 1435 1429 1410 1400 1381 1358 1357 1368 1357 1349 1355 1358 1367
1546 1542 1538 1533 1529 1525 1522 1519 1516 1514 1512 1511 1509 1507 1505 1500 1498 1490 1484 1479 1476 1472 1466 1461 1456 1458 1454 1448 1442 1435 1431 1429 1428 1428 1431 1427 1414 1405 1393 1369 1392 1360 1345 1346 1348 1354 1357
1542 1538 1533 1529 1524 1520 1517 1514 1511 1509 1508 1506 1505 1504 1501 1497 1493 1487 1482 1479 1474 1470 1465 1460 1456 1453 1450 1447 1443 1432 1425 1422 1416 1413 1420 1417 1414 1413 1402 1384 1368 1356 1363 1367 1350 1388 1383
1538 1533 1528 1524 1519 1515 1511 1508 1505 1503 1502 1501 1500 1498 1495 1495 1489 1486 1484 1479 1476 1471 1465 1460 1457 1452 1447 1444 1442 1437 1433 1419 1413 1406 1413 1407 1404 1411 1405 1399 1386 1394 1371 1353 1353 1404 1395
1534 1528 1523 1517 1513 1509 1505 1502 1500 1498 1497 1496 1493 1492 1491 1489 1483 1483 1480 1478 1476 1474 1469 1461 1459 1453 1451 1451 1440 1434 1431 1419 1422 1423 1422 1412 1411 1411 1406 1404 1402 1390 1378 1355 1380 1430 1406
1528 1523 1517 1512 1508 1503 1500 1497 1494 1492 1491 1491 1488 1487 1487 1484 1479 1478 1477 1476 1474 1473 1470 1465 1462 1457 1454 1454 1453 1451 1447 1434 1431 1423 1429 1414 1415 1415 1407 1409 1423 1409 1393 1396 1411 1413 1408
1523 1517 1512 1507 1503 1499 1497 1493 1489 1486 1485 1485 1484 1483 1483 1481 1479 1477 1474 1472 1471 1469 1471 1468 1469 1465 1463 1461 1457 1450 1446 1439 1430 1436 1428 1431 1436 1439 1428 1432 1423 1427 1419 1415 1410 1409 1411
Wind_Speed
20 20 21 22 22 23 24 26 26 27 27 28 28 28 28 28 28 28 28 28 27 25 24 20 17 13 9 10 26 9 5 2 18 28 31 28 28 27 20 20 25 17 12 24 27 9 4
21 21 21 22 23 25 26 26 27 28 28 29 30 30 31 31 30 29 28 26 27 27 23 21 18 12 12 9 17 14 17 10 15 33 31 29 20 26 18 24 19 21 25 21 9 28 17
21 21 22 23 24 26 27 28 29 30 30 31 32 32 33 32 32 30 27 26 26 28 22 21 18 15 17 33 9 5 17 15 14 31 34 31 28 25 30 13 32 27 13 16 14 35 11
21 22 23 24 26 27 28 29 30 31 32 32 33 32 33 33 32 29 27 25 26 26 22 18 16 11 16 16 9 24 22 24 15 18 30 27 26 30 29 21 23 18 18 13 24 21 21
21 22 22 24 25 26 27 28 30 31 33 34 35 35 33 34 32 26 25 24 25 29 13 12 2 5 17 7 17 30 23 27 18 21 21 24 28 32 27 15 13 12 12 11 11 18 12
22 22 23 24 24 26 28 30 32 33 34 34 35 36 34 33 30 23 23 24 36 12 16 15 4 10 15 11 10 23 26 23 26 20 26 26 20 16 15 12 16 8 8 9 13 15 11
23 24 24 24 25 26 29 30 31 32 33 34 34 34 32 30 27 20 27 29 32 8 14 24 29 29 58 19 16 21 27 23 27 29 17 27 11 21 22 18 11 10 17 15 13 11 8
22 23 23 24 25 28 30 31 32 35 37 37 36 36 34 30 22 15 21 25 24 24 29 35 44 47 47 41 24 18 28 27 25 20 19 13 24 19 15 16 18 18 21 21 12 17 15
22 23 24 25 27 27 29 32 35 37 39 40 38 36 35 31 14 14 18 25 26 27 12 29 23 27 37 27 32 47 24 38 16 23 25 25 14 20 19 20 23 23 20 19 13 15 16
22 23 24 25 26 28 32 33 34 35 36 37 34 33 32 29 7 20 19 31 29 22 5 9 4 10 13 23 13 45 34 33 20 24 22 25 22 26 25 24 21 21 18 20 21 14 8
21 22 24 26 28 31 32 32 34 34 35 37 35 30 28 12 19 20 27 32 24 18 5 12 19 20 58 14 7 20 40 32 27 22 21 26 25 28 28 26 21 16 16 21 22 15 7
21 22 24 26 28 29 31 33 35 35 35 38 37 31 20 11 10 18 23 25 24 3 4 8 26 26 33 34 29 24 20 37 25 23 21 25 20 22 26 19 18 17 12 9 15 12 13
20 22 24 25 27 29 31 33 35 37 38 39 37 31 10 10 13 18 24 24 4 3 18 14 27 27 30 23 22 26 16 19 19 23 26 19 30 23 16 19 21 17 12 8 9 13 12
20 21 23 25 27 29 31 33 36 39 40 41 40 23 10 9 11 18 22 10 7 8 16 20 20 23 17 25 26 32 22 17 21 21 10 17 19 31 20 21 16 22 20 5 9 10 11
20 21 23 23 25 29 31 34 36 40 43 43 41 21 7 8 11 16 18 6 6 6 10 14 18 17 19 22 16 22 24 11 19 24 23 17 25 14 28 15 18 20 19 12 3 6 4
20 21 22 23 25 27 30 34 37 39 42 43 39 23 3 5 13 11 6 12 7 15 13 15 18 17 18 15 15 19 14 12 24 24 17 23 10 21 21 23 22 18 12 12 9 10 10
20 21 22 23 24 27 29 32 36 38 42 42 25 14 10 12 18 17 7 7 14 19 17 11 18 16 15 7 13 15 10 27 25 25 29 18 18 28 17 26 28 12 13 15 6 5 6
21 21 23 24 26 27 27 30 34 36 40 39 16 6 10 17 11 8 6 11 17 15 20 13 13 12 10 13 7 14 12 10 32 27 23 16 8 17 27 16 25 16 16 18 11 14 6
23 23 24 25 26 28 27 28 31 32 32 35 18 9 16 23 5 8 13 15 17 10 11 13 7 12 15 5 5 8 9 14 20 25 17 15 5 9 18 13 16 30 23 16 9 5 13
24 25 25 25 26 28 27 27 28 30 26 24 9 5 12 19 22 16 13 14 13 13 8 12 9 15 11 10 4 7 14 11 23 29 40 27 10 11 11 16 8 25 22 21 13 13 16
25 25 25 25 26 27 26 26 26 27 23 12 6 5 10 5 10 16 18 15 12 12 10 8 9 11 13 11 9 7 13 18 20 27 17 11 7 12 14 14 13 17 25 22 23 13 17
25 25 25 25 25 27 26 26 25 24 20 8 5 4 6 14 19 16 12 11 18 17 14 11 12 9 13 13 3 13 16 9 5 16 17 17 7 16 5 11 14 18 26 23 21 19 10
26 27 27 27 28 29 27 26 24 20 13 5 6 7 7 6 10 11 9 14 18 17 12 19 15 14 10 14 20 24 19 19 14 13 17 15 10 10 5 5 6 3 14 24 18 18 16
28 29 28 28 28 28 27 25 23 18 11 12 13 13 4 4 6 11 21 24 16 19 15 22 22 6 16 22 35 25 22 19 17 14 4 20 18 4 5 5 2 7 4 11 18 9 19
28 29 30 30 30 28 27 25 23 19 13 14 16 17 6 3 8 16 17 18 21 23 16 22 16 15 25 18 15 11 7 10 13 14 11 16 11 4 4 2 3 4 12 11 4 11 23
29 30 30 31 30 28 26 25 23 19 13 14 16 18 14 3 6 10 21 19 13 6 8 17 23 23 17 4 3 3 3 5 6 6 14 15 10 2 4 4 2 12 26 32 8 11 20
30 31 32 31 30 28 25 23 22 18 13 14 18 18 14 6 14 8 3 6 9 10 5 14 20 8 15 4 3 3 4 6 4 9 9 6 3 4 4 3 6 18 24 19 7 3 17
31 32 32 30 28 25 23 22 21 17 12 10 17 16 16 10 22 23 12 15 10 10 4 16 11 8 3 7 4 3 3 4 3 3 7 0 3 2 1 4 4 34 22 14 6 19 22
32 32 30 26 24 23 23 24 24 18 10 9 16 14 10 20 10 24 29 14 15 19 22 8 8 17 2 4 4 3 5 3 10 6 12 5 3 2 6 2 14 13 19 22 23 20 25
Wind_Direction
30 28 29 27 23 20 18 15 13 11 8 5 2 359 354 349 345 342 338 336 334 332 327 319 312 303 255 232 237 192 221 242 196 196 202 202 225 215 215 223 234 227 187 192 251 233 204
30 28 26 23 20 19 16 13 10 8 5 4 2 359 355 350 346 342 339 335 331 327 323 319 304 292 242 246 278 234 240 246 215 197 203 202 218 218 225 232 236 245 194 210 231 304 166
27 24 23 21 18 16 13 10 7 6 3 1 359 358 356 351 348 345 343 337 329 321 319 313 301 280 246 246 246 197 217 233 234 208 201 204 208 226 227 242 240 253 243 203 219 228 234
24 21 20 18 16 15 12 9 7 5 2 360 357 356 354 352 350 348 351 343 327 328 315 308 294 261 254 281 257 219 196 221 221 215 213 209 214 241 253 245 257 248 256 225 220 225 241
22 19 17 16 15 14 12 10 7 4 0 358 356 354 353 351 351 353 2 355 347 331 330 327 277 242 267 284 228 192 192 201 205 201 218 216 223 235 246 233 251 251 246 241 248 231 209
18 16 15 14 12 12 12 9 5 1 358 355 353 351 350 351 350 358 357 359 350 6 23 1 298 298 258 253 234 220 196 196 195 202 200 213 224 229 230 222 221 225 237 247 243 247 199
16 14 12 10 10 10 10 7 2 358 355 352 350 348 348 350 346 5 352 5 1 342 323 286 266 258 283 260 290 217 206 211 206 202 198 209 213 223 213 225 234 230 243 235 238 227 223
14 11 9 10 9 10 8 4 2 359 355 351 349 346 347 349 348 1 2 359 352 316 304 283 260 254 254 256 282 248 192 202 215 203 197 204 226 221 211 216 234 235 238 244 230 242 216
12 9 8 9 10 8 5 4 1 357 354 350 346 342 342 342 349 9 5 346 337 331 296 302 269 254 249 250 236 253 220 203 211 208 203 207 218 217 218 216 217 232 233 242 243 243 239
11 8 6 8 9 6 5 1 356 353 350 347 340 338 338 335 358 353 347 341 333 330 303 281 226 333 351 224 256 236 230 208 221 218 211 220 224 197 224 220 217 224 229 248 252 256 254
9 6 6 8 6 6 2 357 352 349 347 344 339 338 332 349 330 334 342 329 331 321 313 333 4 337 344 174 276 220 226 232 212 216 211 214 197 224 208 223 217 229 214 234 248 258 271
8 6 6 4 4 2 360 356 351 347 344 338 339 336 318 351 330 347 331 329 320 261 263 315 3 347 340 333 312 283 211 222 213 225 231 231 214 219 226 211 225 221 228 238 242 251 257
4 3 0 360 2 360 358 357 352 347 346 342 338 335 293 307 333 342 343 322 319 236 356 337 343 342 326 343 323 349 264 224 207 210 229 219 228 215 220 218 205 220 202 226 223 230 236
358 357 357 359 358 356 356 356 352 346 348 346 340 336 286 276 338 344 319 304 270 323 334 323 334 320 335 356 337 335 328 225 227 216 202 222 219 218 205 216 198 210 211 179 201 207 233
351 355 353 355 354 353 353 352 351 349 349 348 343 345 349 324 333 323 308 301 323 328 317 331 315 311 341 334 339 338 328 306 243 207 226 215 242 194 229 209 211 204 216 210 229 213 167
347 349 346 348 349 348 349 347 348 350 349 352 345 345 7 356 320 305 284 277 325 345 345 342 321 323 319 354 347 341 309 6 353 355 308 250 285 217 216 231 226 213 172 210 216 201 219
341 342 340 341 342 342 345 344 344 350 349 355 360 328 36 345 328 294 264 314 344 339 352 308 317 319 322 34 333 331 291 315 3 339 335 316 238 252 234 208 216 200 194 201 190 197 184
332 334 335 336 336 335 340 341 342 350 348 358 357 315 337 345 317 332 349 345 333 360 360 337 327 320 339 324 330 311 300 309 335 324 323 305 298 234 242 230 212 217 210 197 203 227 232
327 329 329 330 330 331 337 338 340 346 353 348 327 289 334 2 352 343 340 335 337 31 342 333 313 329 325 52 356 329 303 316 324 312 335 323 320 242 243 256 250 212 202 210 180 162 231
325 326 328 329 327 328 333 334 336 339 354 349 322 310 344 335 358 347 332 317 330 331 319 300 288 301 344 348 349 261 291 307 315 308 319 316 244 250 250 230 227 208 200 203 196 205 231
326 327 327 328 327 326 329 330 333 335 350 354 342 334 3 305 327 315 300 318 323 309 281 323 300 358 336 324 313 337 331 328 323 306 316 309 265 268 267 270 266 237 199 197 207 202 207
330 330 331 331 327 323 327 326 330 331 342 344 298 344 320 288 290 300 316 322 318 337 331 331 321 317 313 298 30 303 303 318 310 311 317 312 278 325 291 262 265 272 201 193 204 212 235
327 328 328 327 323 323 326 326 325 328 337 316 290 270 319 281 301 300 295 308 326 334 325 318 317 315 317 306 313 296 275 274 256 274 297 297 327 330 302 279 285 213 248 196 204 202 210
326 326 327 326 324 324 324 321 321 321 307 289 284 279 210 264 281 295 305 307 312 321 321 310 297 6 291 301 304 289 288 276 258 252 244 284 302 290 285 33 112 257 322 304 197 199 210
326 327 327 325 322 321 321 321 318 314 302 288 286 269 216 258 259 294 302 323 315 319 312 316 346 306 313 300 300 299 283 247 231 223 202 258 275 292 319 310 298 268 3 346 249 54 7
327 327 326 324 323 323 320 317 315 313 306 291 284 281 245 248 234 278 314 299 299 318 320 317 338 342 359 328 322 279 296 309 338 174 196 248 259 263 348 310 192 357 340 325 305 57 2
327 326 326 324 324 323 321 319 317 313 303 288 283 282 250 229 280 283 262 317 312 300 287 299 347 346 21 323 294 1 294 322 334 328 189 216 314 273 282 296 1 342 345 15 69 55 12
328 328 325 326 325 325 327 326 322 315 306 285 283 286 269 250 275 284 287 300 307 285 301 325 334 5 1 5 14 329 347 331 331 48 359 186 193 246 11 359 16 355 14 57 84 43 35
330 326 326 328 329 332 333 329 323 320 307 284 288 306 312 241 263 285 302 325 292 275 278 296 294 302 321 347 356 343 306 331 324 13 345 21 136 246 338 92 71 360 338 9 37 39 25